Sitka, AK

5:23 AM AKDT on October 17, 2017 (GMT -0800)
Sitka Rocky Gutierrez

Weather History for PASI - January, 2013

Change the Weather History Date:

Thursday, January 31, 2013

  Actual Average Record
Temperature  
Mean Temperature 39 °F -  
Max Temperature 41 °F 38 °F 52 °F (1998)
Min Temperature 37 °F 30 °F 4 °F (1989)
Degree Days  
Heating Degree Days 26    
Moisture  
Dew Point 39 °F    
Average Humidity 98    
Maximum Humidity 100    
Minimum Humidity 93    
Precipitation  
Precipitation 0.01 in - - ()
Sea Level Pressure  
Sea Level Pressure 29.96 in    
Wind  
Wind Speed 3 mph (NE)    
Max Wind Speed 8 mph    
Max Gust Speed -    
Visibility 6 miles    
Events Rain    
Averages and records for this station are not official NWS values.
T = Trace of Precipitation, MM = Missing Value Source: NWS Daily Summary

Daily Weather History Graph

Daily Weather History Graph

Search for Another Location

Airport or City:

Trip Planner

Search our weather history database for the weather conditions in past years. The results will help you decide how hot, cold, wet, or windy it might be!

Date:

Astronomy

Jan. 31, 2013 Rise Set
Actual Time 8:01 AM AKST 4:28 PM AKST
Civil Twilight 7:19 AM AKST 5:11 PM AKST
Nautical Twilight 6:32 AM AKST 5:58 PM AKST
Astronomical Twilight 5:48 AM AKST 6:42 PM AKST
Moon 10:56 PM AKST (1/31) 8:56 AM AKST (1/31)
Length of Visible Light 9h 52m
Length of Day
8h 27m
Waning Gibbous, 78% of the Moon is Illuminated
Jan 31
Waning Gibbous
Feb 3
Last Quarter
Feb 9
New
Feb 17
First Quarter
Feb 25
Full

Hourly Weather History & Observations

Time (AKST) Temp. Windchill Dew Point Humidity Pressure Visibility Wind Dir Wind Speed Gust Speed Precip Events Conditions
12:53 AM 37.9 °F 35.5 °F 37.9 °F 100% 29.80 in 10.0 mi North 3.5 mph - 0.00 in   Overcast
1:53 AM 39.0 °F 35.7 °F 37.0 °F 93% 29.81 in 10.0 mi Variable 4.6 mph - 0.00 in Rain Light Rain
3:53 AM 39.0 °F 35.7 °F 37.0 °F 93% 29.82 in 10.0 mi NNW 4.6 mph - 0.00 in   Overcast
4:53 AM 37.9 °F - 37.9 °F 100% 29.83 in 10.0 mi Calm Calm - N/A   Overcast
5:53 AM 37.9 °F - 37.9 °F 100% 29.84 in 10.0 mi Calm Calm - N/A   Overcast
6:17 AM 39.2 °F 37.0 °F 37.4 °F 93% 29.84 in 7.0 mi North 3.5 mph - N/A   Overcast
6:39 AM 37.4 °F 32.8 °F 37.4 °F 100% 29.85 in 7.0 mi NNW 5.8 mph - N/A   Overcast
6:50 AM 39.2 °F 34.2 °F 37.4 °F 93% 29.85 in 7.0 mi NNW 6.9 mph - N/A   Overcast
6:53 AM 39.0 °F 33.4 °F 37.9 °F 96% 29.85 in 7.0 mi NNW 8.1 mph - N/A   Overcast
7:22 AM 37.4 °F - 37.4 °F 100% 29.86 in 7.0 mi Calm Calm - N/A   Overcast
7:53 AM 37.9 °F - 37.0 °F 97% 29.88 in 8.0 mi Calm Calm - N/A   Overcast
8:13 AM 37.4 °F 33.8 °F 37.4 °F 100% 29.88 in 2.0 mi East 4.6 mph - 0.00 in Rain Light Rain
8:19 AM 37.4 °F 33.8 °F 37.4 °F 100% 29.89 in 1.8 mi East 4.6 mph - 0.00 in Rain Light Rain
8:41 AM 37.4 °F 32.1 °F 37.4 °F 100% 29.89 in 2.5 mi East 6.9 mph - 0.00 in   Overcast
8:53 AM 37.9 °F 34.4 °F 37.9 °F 100% 29.89 in 4.0 mi ESE 4.6 mph - 0.01 in   Overcast
9:19 AM 37.4 °F - 37.4 °F 100% 29.91 in 8.0 mi Calm Calm - N/A   Overcast
9:33 AM 39.2 °F - 39.2 °F 100% 29.91 in 9.0 mi Calm Calm - N/A   Overcast
9:36 AM 39.2 °F - 39.2 °F 100% 29.91 in 7.0 mi Calm Calm - N/A   Overcast
9:53 AM 39.0 °F 34.8 °F 37.9 °F 96% 29.92 in 3.0 mi NNW 5.8 mph - N/A   Overcast
9:56 AM 39.2 °F 35.9 °F 37.4 °F 93% 29.92 in 3.0 mi NW 4.6 mph - N/A   Overcast
10:12 AM 39.2 °F 35.9 °F 39.2 °F 100% 29.93 in 1.8 mi NNW 4.6 mph - N/A   Overcast
10:16 AM 39.2 °F 35.9 °F 39.2 °F 100% 29.93 in 1.5 mi NNW 4.6 mph - N/A   Overcast
10:31 AM 39.2 °F 35.9 °F 39.2 °F 100% 29.93 in 2.0 mi NNW 4.6 mph - N/A   Overcast
10:36 AM 39.2 °F 35.9 °F 39.2 °F 100% 29.94 in 3.0 mi NNW 4.6 mph - N/A   Overcast
10:44 AM 39.2 °F 37.0 °F 39.2 °F 100% 29.94 in 5.0 mi NNW 3.5 mph - N/A   Overcast
10:53 AM 39.9 °F 37.8 °F 39.9 °F 100% 29.94 in 6.0 mi North 3.5 mph - N/A   Overcast
11:43 AM 41.0 °F - 39.2 °F 93% 29.95 in 6.0 mi Calm Calm - N/A   Overcast
11:51 AM 41.0 °F - 39.2 °F 93% 29.95 in 5.0 mi Calm Calm - N/A   Overcast
11:53 AM 41.0 °F - 39.9 °F 96% 29.96 in 5.0 mi Calm Calm - N/A   Overcast
12:00 PM 39.2 °F - 39.2 °F 100% 29.96 in 7.0 mi Calm Calm - N/A   Overcast
12:30 PM 39.2 °F - 39.2 °F 100% 29.97 in 10.0 mi Calm Calm - N/A   Overcast
12:53 PM 41.0 °F - 39.9 °F 96% 29.97 in 10.0 mi Calm Calm - N/A   Overcast
1:53 PM 41.0 °F - 39.9 °F 96% 30.00 in 9.0 mi Calm Calm - N/A   Overcast
2:21 PM 41.0 °F - 39.2 °F 93% 30.00 in 2.0 mi Calm Calm - N/A   Overcast
2:33 PM 41.0 °F - 39.2 °F 93% 30.01 in 3.0 mi Calm Calm - N/A   Overcast
2:40 PM 41.0 °F - 39.2 °F 93% 30.01 in 3.0 mi Calm Calm - N/A   Overcast
2:49 PM 41.0 °F - 39.2 °F 93% 30.01 in 1.8 mi Calm Calm - N/A   Overcast
2:53 PM 41.0 °F - 39.9 °F 96% 30.01 in 1.5 mi Calm Calm - N/A   Overcast
3:38 PM 41.0 °F 38.0 °F 41.0 °F 100% 30.01 in 2.5 mi East 4.6 mph - N/A   Overcast
3:45 PM 41.0 °F 39.0 °F 41.0 °F 100% 30.01 in 3.0 mi East 3.5 mph - N/A   Overcast
3:53 PM 41.0 °F - 41.0 °F 100% 30.01 in 3.0 mi Calm Calm - N/A   Overcast
4:03 PM 41.0 °F 39.0 °F 41.0 °F 100% 30.01 in 1.8 mi East 3.5 mph - N/A   Overcast
4:13 PM 41.0 °F - 41.0 °F 100% 30.01 in 3.0 mi Calm Calm - N/A   Overcast
4:53 PM 41.0 °F - 39.9 °F 96% 30.01 in 10.0 mi Calm Calm - N/A   Overcast
5:48 PM 39.2 °F 37.0 °F 39.2 °F 100% 30.03 in 10.0 mi East 3.5 mph - N/A   Overcast
5:53 PM 39.9 °F 36.7 °F 39.9 °F 100% 30.03 in 10.0 mi East 4.6 mph - N/A   Overcast
6:19 PM 39.2 °F - 39.2 °F 100% 30.04 in 10.0 mi Calm Calm - N/A   Overcast
6:51 PM 39.2 °F 37.0 °F 39.2 °F 100% 30.04 in 10.0 mi ESE 3.5 mph - N/A   Overcast
6:53 PM 39.0 °F 36.8 °F 39.0 °F 100% 30.04 in 10.0 mi East 3.5 mph - N/A   Overcast
7:53 PM 39.0 °F 35.7 °F 39.0 °F 100% 30.05 in 10.0 mi ESE 4.6 mph - N/A   Overcast
8:51 PM 39.2 °F 35.9 °F 39.2 °F 100% 30.04 in 10.0 mi ESE 4.6 mph - N/A   Overcast
8:53 PM 39.0 °F 35.7 °F 39.0 °F 100% 30.04 in 10.0 mi ESE 4.6 mph - N/A   Overcast
9:17 PM 39.2 °F - 37.4 °F 93% 30.05 in 10.0 mi Calm Calm - N/A   Scattered Clouds
9:32 PM 39.2 °F - 37.4 °F 93% 30.06 in 10.0 mi Calm Calm - N/A   Scattered Clouds
9:53 PM 39.0 °F - 37.9 °F 96% 30.06 in 10.0 mi Calm Calm - N/A   Overcast
10:53 PM 37.9 °F - 37.9 °F 100% 30.08 in 10.0 mi Calm Calm - N/A   Overcast
11:53 PM 37.9 °F 35.5 °F 37.9 °F 100% 30.10 in 10.0 mi East 3.5 mph - N/A   Overcast